Orbital Elements at Epoch 2459107.5 (2020-Sep-15.0) TDB
Reference: JPL 9 (heliocentric ecliptic J2000)
Element | Value | Uncertainty (1-sigma) | Units |
e | .5926012649767365 | 0.0012071 | |
a | 1.715228301950281 | 0.0042709 | au |
q | .6987818404906446 | 0.00033044 | au |
i | 7.605884830860933 | 0.014533 | deg |
node | 174.9297454052013 | 0.0025776 | deg |
peri | 265.6686455044423 | 0.0089716 | deg |
M | 335.3310524787725 | 0.11033 | deg |
tp | 2459163.724997960517 (2020-Nov-10.22499796) | 0.041469 | TDB |
period | 820.5051816000191 2.25 | 3.0646 0.00839 | d yr |
n | .4387540847676124 | 0.0016388 | deg/d |
Q | 2.731674763409917 | 0.0068019 | au |
|
| | Orbit Determination Parameters
Additional Information
|